Location: Fayetteville
(35.0530°N, 78.8790°W)
Time: 16:36:31
(UTC-05:00)

Hubble Space Telescope - Pass Details

Date: 04 December 2021
Orbit: 534 x 538 km, 28.5° (Epoch: 28 January)

Event Time Altitude Azimuth Distance (km) Brightness Sun altitude
Exits shadow 04:53:54 17° 170° (S) 1,390 3.0 -26.8°
Drops below altitude 10° 04:55:31 10° 149° (SSE) 1,770 3.9 -26.5°
Sets 04:58:13 0° 131° (SE) 2,659 5.2 -26.0°
